User: anonymous   Login
Location: Theodore Roosevelt National Park
(46.9990°N, 103.4631°W)
Time: 11:38:05
(UTC-06:00)
Language:

Cosmos 2219 Rocket - Orbit

View from above orbital plane
View from above orbital plane
View from above satellite
View from above satellite

Ground track
Ground track

The orbit data is extracted from the following two-line orbital elements,

1 22220U 92076B   16144.49983738 -.00000208  00000-0 -80655-4 0  9999
2 22220  70.9985 159.5066 0011733 156.4836 312.4083 14.16398779215596
Epoch (UTC): 23 May 2016 11:59:45
Eccentricity: 0.0011733
inclination: 70.9985°
perigee height: 829 km
apogee height: 846 km
right ascension of ascending node: 159.5066°
argument of perigee: 156.4836°
revolutions per day: 14.16398779
mean anomaly at epoch: 312.4083°
orbit number at epoch: 21559

The dashed part of the orbit path shows where the satellite is in the earth's shadow,  

DLR